THORAD AGENA D DEB, 4655

Orbit data source: Space-Track

THORAD AGENA D DEB, 4655 is space debris in SSO originally from a launch on Wed, 08 Apr 1970 UTC launched from the Air Force Western Test Range (AFWTR). Debris objects in space refer to the collection of defunct objects orbiting the Earth. Examples of debris include non-operational satellites, rocket bodies, and fragments generated from explosions, collisions, or faulty payload assembly.

Loading next visibility...
Identifier
4655, 1970-025AP
Orbit
SSO
Country
Flag of USUS
Related business
Manufacturer
Unknown
Mission
Spacecraft
Bus & Motor
Unknown
Mass
Unknown
Launch date (UTC)
1970-04-08 (55 years ago)
Launch vehicle
Unknown
Launch site
Air Force Western Test Range (AFWTR)
Object type
Payload
Rocket body
Debris
Shape & HBR
Unknown
Radar Cross Section
Small (<0.1 m²)

Expand to show TLE details & history
Last TLE update: 2 days ago

TLE from 2 days ago
0 THORAD AGENA D DEB
1 04655U 70025AP  25259.20197765  .00000161  00000-0  23779-3 0  9993
2 04655  99.9646 354.9542 0055023 123.6171 237.0240 13.69172012760321
Epoch: 2025-09-16T04:50Z
TLE epoch observation values (Epoch: 2025-09-16T04:50:50.868Z)
Latitude
-0.00011°
Longitude
-73.1534°
Altitude
1,027.613 km
Speed
7.327 km/s
True Right ascension
23h 39m 49s
True Declination
0° 00' 00"
Sunlit
Object was in full shadow at epoch
Visualization orbit readout
Latitude
Unknown
Longitude
Unknown
Altitude
Unknown
Speed
Unknown
Apparent Right ascension
Unknown
Apparent Declination
Unknown
Sunlit
N/A
Visualization observer readout
Local Sidereal Time
05:49:45
Azimuth
Unknown
Elevation
Unknown
Doppler factor
Unknown
Orbital elements
Apogee altitude
1,040.43 km
Perigee altitude
959.239 km
Semi-major axis
7,377.972 km
Eccentricity
0.0055
Inclination
99.9646°
RAAN
354.9542°
Arg. of periapsis
123.6171°
True anomaly
236.49704°
Mean anomaly
237.024°
Eccentric anomaly
236.76032°
Mean motion
3.42482 °/min
Orbital period
105.12 mins
BSTAR
0.00023779
Loading maneuver chart data...
Computing Atmospheric mass density...

Documentation

Showing up to 5 results
|